CDT,Max TemperatureF,Mean TemperatureF,Min TemperatureF,Max Dew PointF,MeanDew PointF,Min DewpointF,Max Humidity, Mean Humidity, Min Humidity, Max Sea Level PressureIn, Mean Sea Level PressureIn, Min Sea Level PressureIn, Max VisibilityMiles, Mean VisibilityMiles, Min VisibilityMiles, Max Wind SpeedMPH, Mean Wind SpeedMPH, Max Gust SpeedMPH,PrecipitationIn, CloudCover, Events, WindDirDegrees
2012-5-1,69,60,50,55,48,39,94,70,53,29.70,29.58,29.51,10,9,3,18,8,24,0.02,3,Rain,155
2012-5-2,69,58,46,52,46,39,88,70,33,29.83,29.67,29.52,10,6,0,16,4,23,0.00,5,Fog,261
2012-5-3,55,50,44,48,45,39,87,80,67,30.10,29.94,29.81,10,10,10,15,10,18,0.00,2,,47
2012-5-4,53,47,41,46,42,37,87,81,76,30.15,30.09,30.04,10,10,10,16,12,21,0.00,6,,71
2012-5-5,53,50,46,48,45,41,88,82,71,30.09,30.06,30.03,10,10,10,18,11,22,0.00,6,,77
2012-5-6,57,54,50,50,47,45,88,82,76,30.05,29.97,29.88,10,10,7,15,10,16,0.00,6,Rain,106
2012-5-7,60,52,44,48,44,39,93,79,55,29.87,29.78,29.75,10,10,5,21,9,28,0.06,5,Rain,240
2012-5-8,55,48,42,45,43,39,93,82,63,30.06,29.96,29.80,10,9,2,18,9,26,0.06,6,Rain,352
2012-5-9,66,52,39,43,38,34,93,59,34,30.06,29.98,29.86,10,10,2,13,7,18,0.00,1,,235
2012-5-10,78,61,44,48,43,36,76,51,32,29.86,29.75,29.65,10,10,7,16,9,25,0.00,0,,174
2012-5-11,66,55,44,48,36,21,87,56,25,30.17,29.99,29.73,10,10,7,22,13,31,0.05,4,Rain,280
2012-5-12,69,53,37,30,28,25,65,37,18,30.25,30.18,30.10,10,10,10,23,9,29,0.00,0,,231
2012-5-13,78,64,51,39,35,28,54,35,18,30.09,29.96,29.84,10,10,10,24,12,37,0.00,0,,241
2012-5-14,80,61,42,48,40,34,76,45,20,29.96,29.86,29.73,10,10,7,26,5,40,0.01,1,Rain,284
2012-5-15,60,52,42,43,33,25,82,48,29,30.15,30.03,29.79,10,10,10,23,13,29,0.00,1,,320
2012-5-16,60,44,28,46,35,25,86,61,45,30.18,30.09,29.94,10,10,10,12,5,,0.00,0,,67
2012-5-17,82,66,50,54,45,34,68,45,32,29.93,29.70,29.59,10,10,5,20,11,29,0.00,0,,138
2012-5-18,75,65,55,63,55,48,88,69,53,29.64,29.61,29.56,10,10,7,15,6,16,0.00,0,Rain-Thunderstorm,77
2012-5-19,64,54,44,61,51,39,94,86,77,30.04,29.77,29.62,10,9,2,17,6,29,0.13,6,Rain-Thunderstorm,327
2012-5-20,66,52,37,48,37,28,93,63,26,30.15,30.08,30.02,10,10,2,17,5,25,0.00,0,,305
2012-5-21,69,54,39,54,40,34,82,60,30,30.19,30.12,29.98,10,10,10,17,4,21,0.00,3,Rain,179
2012-5-22,66,60,53,57,54,48,88,80,68,29.96,29.72,29.44,10,10,7,21,12,26,0.26,3,Rain-Thunderstorm,100
2012-5-23,73,65,57,59,57,54,88,72,57,29.45,29.40,29.33,10,10,7,21,13,29,0.01,1,Rain-Thunderstorm,194
2012-5-24,68,57,46,54,48,43,88,68,46,29.60,29.49,29.44,10,10,7,14,7,21,0.00,0,,244
2012-5-25,53,46,39,46,39,36,87,73,51,30.18,29.91,29.61,10,10,10,17,11,25,0.00,6,,269
2012-5-26,57,46,35,48,42,32,93,78,67,30.25,30.18,30.06,10,9,0,20,8,25,0.00,4,Fog-Rain-Thunderstorm,39
2012-5-27,53,52,50,50,48,46,88,84,82,30.06,29.79,29.62,10,7,2,28,19,34,0.77,8,Rain,74
2012-5-28,64,56,46,52,50,43,88,82,56,29.66,29.60,29.54,10,7,1,16,9,24,0.01,7,Rain,245
2012-5-29,48,45,42,45,42,39,93,85,71,30.00,29.77,29.58,10,8,2,15,8,22,0.07,7,Rain,311
2012-5-30,59,50,41,45,39,36,87,69,51,30.05,30.01,29.98,10,10,1,12,5,,0.00,3,,46
2012-5-31,69,54,39,46,37,34,87,55,27,30.07,30.00,29.92,10,7,0,9,2,,0.00,0,Fog,199